When you browse on this site, cookies collect data to enhance your experience and personalize the content and advertising you see.
Visit our Privacy Policy to learn more. By continuing to use the site, you agree to this use of cookies and data.
  • In Hungary
  • List of Countries
  • For 7 days
  • Water Temperature
  • Satellite Maps
  • Weather Map
  • News
  • Weather Widgets
  • user-avatar
    Login

    Hourly Weather Hakodate

    Today, 17 January, Thursday

    Time Temperature Precipitation Wind Pressure Humidity
    00:00 -6°C° 0.2 mm 11 mps 754 mmHg 77%
    01:00 -6°C° 0.4 mm 11 mps 753 mmHg 77%
    02:00 -6°C° 0.4 mm 12 mps 753 mmHg 78%
    03:00 -6°C° 0 mm 12 mps 752 mmHg 80%
    04:00 -6°C° 0.3 mm 12 mps 751 mmHg 76%
    05:00 -6°C° 0.3 mm 13 mps 751 mmHg 72%
    06:00 -6°C° 0.3 mm 13 mps 751 mmHg 68%
    07:00 -7°C° 0.1 mm 13 mps 751 mmHg 67%
    08:00 -8°C° 0.1 mm 14 mps 751 mmHg 66%
    09:00 -8°C° 0 mm 12 mps 751 mmHg 64%
    10:00 -10°C° 0.1 mm 13 mps 751 mmHg 66%
    11:00 -10°C° 0.1 mm 13 mps 751 mmHg 67%
    12:00 -11°C° 0.1 mm 14 mps 751 mmHg 68%
    13:00 -11°C° 0.1 mm 14 mps 750 mmHg 69%
    14:00 -12°C° 0.1 mm 15 mps 750 mmHg 69%
    15:00 -13°C° 0.1 mm 15 mps 750 mmHg 70%
    16:00 -14°C° 0.1 mm 15 mps 750 mmHg 73%
    17:00 -15°C° 0.1 mm 14 mps 751 mmHg 76%
    18:00 -17°C° 0.1 mm 14 mps 751 mmHg 80%
    19:00 -16°C° 0.2 mm 13 mps 751 mmHg 80%
    20:00 -16°C° 0.2 mm 13 mps 752 mmHg 81%
    21:00 -16°C° 0.2 mm 12 mps 752 mmHg 82%
    22:00 -16°C° 0.2 mm 12 mps 752 mmHg 81%
    23:00 -15°C° 0.2 mm 12 mps 753 mmHg 80%

    Tomorrow, 18 January, Friday

    Time Temperature Precipitation Wind Pressure Humidity
    00:00 -15°C° 0.2 mm 12 mps 753 mmHg 79%
    01:00 -13°C° 0.2 mm 12 mps 753 mmHg 79%
    02:00 -13°C° 0.2 mm 12 mps 753 mmHg 79%
    03:00 -12°C° 0.2 mm 12 mps 753 mmHg 79%
    04:00 -12°C° 0.2 mm 12 mps 754 mmHg 79%
    05:00 -12°C° 0.2 mm 12 mps 754 mmHg 79%
    06:00 -12°C° 0.2 mm 11 mps 754 mmHg 80%
    07:00 -11°C° 0.1 mm 11 mps 755 mmHg 78%
    08:00 -11°C° 0.1 mm 11 mps 755 mmHg 77%
    09:00 -11°C° 0.1 mm 11 mps 755 mmHg 76%
    10:00 -9°C° 0.1 mm 10 mps 755 mmHg 75%
    11:00 -9°C° 0.1 mm 10 mps 755 mmHg 75%
    12:00 -9°C° 0.1 mm 10 mps 756 mmHg 74%
    13:00 -9°C° 0.1 mm 10 mps 756 mmHg 75%
    14:00 -9°C° 0.1 mm 10 mps 756 mmHg 75%
    15:00 -8°C° 0.1 mm 10 mps 756 mmHg 75%
    16:00 -9°C° 0.1 mm 10 mps 757 mmHg 76%
    17:00 -9°C° 0.1 mm 10 mps 758 mmHg 76%
    18:00 -9°C° 0.1 mm 10 mps 758 mmHg 76%
    19:00 -9°C° 0.1 mm 9 mps 758 mmHg 76%
    20:00 -8°C° 0.1 mm 9 mps 759 mmHg 76%
    21:00 -7°C° 0.1 mm 8 mps 759 mmHg 77%
    22:00 -7°C° 0.1 mm 8 mps 759 mmHg 76%
    23:00 -7°C° 0.1 mm 8 mps 759 mmHg 75%

    Day after tomorrow, 19 January, Saturday

    Time Temperature Precipitation Wind Pressure Humidity
    00:00 -7°C° 0.1 mm 8 mps 759 mmHg 74%
    01:00 -6°C° 0 mm 8 mps 759 mmHg 74%
    02:00 -6°C° 0 mm 8 mps 759 mmHg 74%
    03:00 -6°C° 0 mm 8 mps 760 mmHg 74%
    04:00 -6°C° 0 mm 8 mps 759 mmHg 74%
    05:00 -6°C° 0 mm 8 mps 759 mmHg 74%
    06:00 -6°C° 0 mm 8 mps 759 mmHg 73%
    07:00 -6°C° 0 mm 9 mps 759 mmHg 72%
    08:00 -5°C° 0 mm 9 mps 760 mmHg 70%
    09:00 -5°C° 0 mm 9 mps 760 mmHg 68%
    10:00 -5°C° 0 mm 9 mps 759 mmHg 66%
    11:00 -4°C° 0 mm 9 mps 759 mmHg 64%
    12:00 -4°C° 0 mm 9 mps 759 mmHg 63%
    13:00 -4°C° 0 mm 9 mps 759 mmHg 64%
    14:00 -4°C° 0 mm 9 mps 759 mmHg 65%
    15:00 -4°C° 0 mm 8 mps 759 mmHg 66%
    16:00 -5°C° 0 mm 8 mps 759 mmHg 67%
    17:00 -4°C° 0 mm 7 mps 759 mmHg 68%
    18:00 -6°C° 0 mm 7 mps 759 mmHg 69%
    19:00 -6°C° 0 mm 7 mps 759 mmHg 69%
    20:00 -6°C° 0 mm 7 mps 759 mmHg 68%
    21:00 -6°C° 0 mm 7 mps 758 mmHg 68%
    22:00 -6°C° 0 mm 7 mps 758 mmHg 68%
    23:00 -6°C° 0 mm 7 mps 758 mmHg 69%

    20 January, Sunday

    Time Temperature Precipitation Wind Pressure Humidity
    00:00 -4°C° 0 mm 7 mps 757 mmHg 69%
    01:00 -4°C° 0 mm 7 mps 757 mmHg 70%
    02:00 -4°C° 0 mm 7 mps 756 mmHg 71%
    03:00 -4°C° 0 mm 7 mps 756 mmHg 71%
    04:00 -4°C° 0 mm 7 mps 755 mmHg 71%
    05:00 -3°C° 0 mm 7 mps 755 mmHg 70%
    06:00 -3°C° 0 mm 7 mps 754 mmHg 70%
    07:00 -3°C° 0 mm 7 mps 754 mmHg 69%
    08:00 -3°C° 0 mm 7 mps 753 mmHg 67%
    09:00 -2°C° 0 mm 7 mps 753 mmHg 66%
    10:00 -2°C° 0 mm 7 mps 752 mmHg 64%
    11:00 -2°C° 0 mm 7 mps 751 mmHg 62%
    12:00 -2°C° 0 mm 7 mps 751 mmHg 61%
    13:00 -2°C° 0.2 mm 7 mps 750 mmHg 66%
    14:00 -3°C° 0.2 mm 7 mps 750 mmHg 71%
    15:00 -3°C° 0.2 mm 7 mps 749 mmHg 76%
    16:00 -5°C° 0.4 mm 8 mps 749 mmHg 76%
    17:00 -6°C° 0.4 mm 8 mps 749 mmHg 75%
    18:00 -7°C° 0.4 mm 8 mps 749 mmHg 75%
    19:00 -8°C° 0.1 mm 9 mps 749 mmHg 72%
    20:00 -9°C° 0.1 mm 10 mps 750 mmHg 70%
    21:00 -9°C° 0.1 mm 11 mps 750 mmHg 67%
    22:00 -9°C° 0.1 mm 11 mps 750 mmHg 68%
    23:00 -11°C° 0.1 mm 11 mps 750 mmHg 70%

    21 January, Monday

    Time Temperature Precipitation Wind Pressure Humidity
    00:00 -11°C° 0.1 mm 11 mps 750 mmHg 71%
    01:00 -11°C° 0.2 mm 11 mps 750 mmHg 74%
    02:00 -11°C° 0.2 mm 11 mps 750 mmHg 76%
    03:00 -9°C° 0.2 mm 11 mps 750 mmHg 78%
    04:00 -9°C° 0.7 mm 11 mps 751 mmHg 81%
    05:00 -10°C° 0.7 mm 12 mps 751 mmHg 83%
    06:00 -8°C° 0.7 mm 12 mps 751 mmHg 86%
    07:00 -9°C° 1 mm 11 mps 752 mmHg 86%
    08:00 -9°C° 1 mm 10 mps 753 mmHg 86%
    09:00 -9°C° 1 mm 9 mps 753 mmHg 86%
    10:00 -9°C° 0.4 mm 9 mps 753 mmHg 83%
    11:00 -9°C° 0.4 mm 9 mps 753 mmHg 80%
    12:00 -9°C° 0.4 mm 10 mps 753 mmHg 77%
    13:00 -9°C° 0.1 mm 9 mps 753 mmHg 76%
    14:00 -9°C° 0.1 mm 9 mps 753 mmHg 76%
    15:00 -9°C° 0.1 mm 9 mps 753 mmHg 75%
    16:00 -10°C° 0.1 mm 9 mps 753 mmHg 76%
    17:00 -10°C° 0.1 mm 8 mps 754 mmHg 76%
    18:00 -10°C° 0.1 mm 8 mps 754 mmHg 77%
    19:00 -9°C° 0.1 mm 7 mps 754 mmHg 76%
    20:00 -9°C° 0.1 mm 6 mps 754 mmHg 76%
    21:00 -9°C° 0.1 mm 6 mps 754 mmHg 75%
    22:00 -8°C° 0 mm 6 mps 754 mmHg 76%
    23:00 -8°C° 0 mm 6 mps 754 mmHg 76%

    22 January, Tuesday

    Time Temperature Precipitation Wind Pressure Humidity
    00:00 -8°C° 0 mm 6 mps 754 mmHg 76%
    01:00 -8°C° 0.1 mm 6 mps 754 mmHg 77%
    02:00 -8°C° 0.1 mm 6 mps 754 mmHg 77%
    03:00 -7°C° 0.1 mm 5 mps 754 mmHg 78%
    04:00 -7°C° 0.1 mm 5 mps 754 mmHg 78%
    05:00 -7°C° 0.1 mm 5 mps 754 mmHg 79%
    06:00 -7°C° 0.1 mm 5 mps 754 mmHg 79%
    07:00 -6°C° 0.1 mm 5 mps 754 mmHg 77%
    08:00 -6°C° 0.1 mm 5 mps 754 mmHg 75%
    09:00 -5°C° 0.1 mm 5 mps 754 mmHg 72%
    10:00 -5°C° 0 mm 5 mps 753 mmHg 70%
    11:00 -4°C° 0 mm 5 mps 753 mmHg 68%
    12:00 -4°C° 0 mm 5 mps 753 mmHg 66%
    13:00 -3°C° 0 mm 4 mps 752 mmHg 67%
    14:00 -3°C° 0 mm 4 mps 752 mmHg 67%
    15:00 -2°C° 0 mm 3 mps 752 mmHg 68%
    16:00 -4°C° 0 mm 3 mps 752 mmHg 71%
    17:00 -3°C° 0 mm 2 mps 752 mmHg 74%
    18:00 -2°C° 0 mm 1 mps 752 mmHg 77%
    19:00 -4°C° 0 mm 2 mps 753 mmHg 77%
    20:00 -5°C° 0 mm 2 mps 753 mmHg 78%
    21:00 -5°C° 0 mm 2 mps 753 mmHg 79%
    22:00 -6°C° 0 mm 3 mps 753 mmHg 79%
    23:00 -7°C° 0 mm 3 mps 753 mmHg 80%
    Show more